Location: Unspecified
(0.0000°N, 0.0000°E)
Time: 00:33:10
(UTC+02:00)

NOSS 3-3 (A) - Visible Passes

Search period start: 07 May 2015 00:00
Search period end: 17 May 2015 00:00
Orbit: 955 x 1258 km, 63.4° (Epoch: 30 April)

Date Brightness Start Highest point End Pass type
(mag) Time Alt. Az. Time Alt. Az. Time Alt. Az.
07 May 5.9 20:55:52 10° NNE 20:59:48 15° ENE 21:01:21 15° ENE visible
07 May 5.2 22:43:11 10° NNW 22:48:52 50° NW 22:48:52 50° NW visible
08 May 4.3 21:58:32 10° NNW 22:06:19 73° ENE 22:06:30 72° ENE visible
08 May 7.0 23:53:33 10° W 23:54:01 11° W 23:54:01 11° W visible
09 May 4.9 21:14:28 10° N 21:21:38 41° ENE 21:24:12 33° ESE visible
09 May 6.1 23:06:12 10° WNW 23:11:43 26° WSW 23:11:43 26° WSW visible
10 May 5.6 20:31:11 10° NNE 20:36:51 23° ENE 20:41:57 13° ESE visible
10 May 5.2 22:20:24 10° NW 22:27:53 47° WSW 22:29:29 42° SW visible
11 May 4.5 21:35:23 10° NNW 21:43:13 82° WSW 21:47:17 32° SSE visible
12 May 4.6 20:50:57 10° N 20:58:35 59° ENE 21:05:07 15° SE visible
12 May 6.5 22:44:28 10° WNW 22:49:42 18° WSW 22:52:39 14° SW visible
13 May 5.9 21:57:55 10° NW 22:04:51 33° WSW 22:10:30 14° S visible
14 May 5.0 21:12:27 10° NW 21:20:08 59° WSW 21:27:47 10° S visible
15 May 4.6 20:27:39 10° NNW 20:35:29 82° ENE 20:43:21 10° SSE visible
15 May 6.9 22:24:03 10° W 22:26:49 11° WSW 22:28:44 10° SW visible
16 May 6.4 21:35:48 10° WNW 21:41:52 23° WSW 21:47:32 10° SSW visible
